Location: Hebron
(33.0265°N, 96.8636°W)
Time: 09:06:47
(UTC+00:00)

Okean 1 - Pass Details

Date: 06 July 2022
Orbit: 532 x 553 km, 82.5° (Epoch: 14 August)

Event Time Altitude Azimuth Distance (km) Brightness Sun altitude
Rises 10:15:03 0° 335° (NNW) 2,682 7.0 -13.1°
Reaches altitude 10° 10:17:38 10° 318° (NW) 1,785 5.9 -12.6°
Maximum altitude 10:20:29 20° 271° (W) 1,284 4.7 -12.2°
Enters shadow 10:21:38 17° 248° (WSW) 1,374 4.7 -12.0°
